Find Starlink 6377

NORAD ID: 57341 Int'l Des: 2023-099 Owner: SPXS Country: US Constellation: starlink operational
LEOCIRCULAR

現在のビュー

3D地球を読み込み中...

About Starlink 6377

Starlink 6377 (NORAD 57341) is a starlink constellation satellite (v1.5) launched Jul 16, 2023 by SPXS of US. It operates in LEO, CIRCULAR orbit with a mass of 305.00 kg.

Starlink 6377について

説明を読み込み中...

次回通過

Passes for default location (London). Set your location on the main map for personalized predictions.

高度履歴

Loading altitude history...

軌道要素

1 57341U 23099P 26174.92030624 -.00004492 00000-0 -15377-3 0 9996
2 57341 43.0029 15.8254 0000812 223.3828 136.6960 15.27589284162285
Epoch: Jun 23, 2026 • Age: 10 hours

現在のステータス

高度 486.6 km
速度 7.63 km/s
衛星直下点 42.90°N, 65.25°E
打ち上げ日 Jul 16, 2023
運用期間 2.9 years
タイプ internet

技術仕様

分類 Payload
質量 305.00 kg
乾燥質量 290.00 kg
総質量 305.00 kg
長さ 0.20 m
直径 2.80 m
スパン 9.00 m
形状 Box + pan
製造者 SPXS
バスタイプ Starlink
フェーズステータス In Orbit
所有者/国 SPXS/US

Most Searched